Time,TemperatureF,DewpointF,PressureIn,WindDirection,WindDirectionDegrees,WindSpeedMPH,WindSpeedGustMPH,Humidity,HourlyPrecipIn,Conditions,Clouds,dailyrainin,SoftwareType,DateUTC
2013-03-17 00:14:00,17.5,11.0,30.20,NNW,331,7.0,10.0,76,0.00,,,0.00,weatherlink.com 1.10,2013-03-17 05:14:00,
2013-03-17 00:29:00,17.3,11.0,30.20,NW,322,3.0,8.0,76,0.00,,,0.00,weatherlink.com 1.10,2013-03-17 05:29:00,
2013-03-17 00:44:00,17.1,11.0,30.20,NNW,344,5.0,8.0,76,0.00,,,0.00,weatherlink.com 1.10,2013-03-17 05:44:00,
2013-03-17 00:59:00,16.8,10.0,30.21,NNW,327,3.0,8.0,76,0.00,,,0.00,weatherlink.com 1.10,2013-03-17 05:59:00,
2013-03-17 01:14:00,16.8,11.0,30.20,NNW,344,6.0,7.0,78,0.00,,,0.00,weatherlink.com 1.10,2013-03-17 06:14:00,
2013-03-17 01:29:00,16.4,11.0,30.20,NW,318,2.0,9.0,78,0.00,,,0.00,weatherlink.com 1.10,2013-03-17 06:29:00,
2013-03-17 01:44:00,16.2,11.0,30.20,NNW,335,2.0,7.0,78,0.00,,,0.00,weatherlink.com 1.10,2013-03-17 06:44:00,
2013-03-17 01:59:00,15.8,10.0,30.20,NW,313,4.0,9.0,78,0.00,,,0.00,weatherlink.com 1.10,2013-03-17 06:59:00,
2013-03-17 02:14:00,15.3,9.0,30.20,NW,325,5.0,12.0,77,0.00,,,0.00,weatherlink.com 1.10,2013-03-17 07:14:00,
2013-03-17 02:29:00,15.2,10.0,30.20,North,360,4.0,8.0,78,0.00,,,0.00,weatherlink.com 1.10,2013-03-17 07:29:00,
2013-03-17 02:44:00,14.9,9.0,30.20,NNE,32,4.0,6.0,78,0.00,,,0.00,weatherlink.com 1.10,2013-03-17 07:44:00,
2013-03-17 02:59:00,14.5,9.0,30.19,NW,311,2.0,8.0,78,0.00,,,0.00,weatherlink.com 1.10,2013-03-17 07:59:00,
2013-03-17 03:14:00,14.3,9.0,30.18,NNE,24,4.0,8.0,79,0.00,,,0.00,weatherlink.com 1.10,2013-03-17 08:14:00,
2013-03-17 03:29:00,14.0,8.0,30.18,NNE,18,4.0,7.0,78,0.00,,,0.00,weatherlink.com 1.10,2013-03-17 08:29:00,
2013-03-17 03:44:00,13.9,9.0,30.18,North,360,3.0,6.0,79,0.00,,,0.00,weatherlink.com 1.10,2013-03-17 08:44:00,
2013-03-17 03:59:00,13.8,8.0,30.18,NE,48,3.0,6.0,79,0.00,,,0.00,weatherlink.com 1.10,2013-03-17 08:59:00,
2013-03-17 04:14:00,13.5,8.0,30.17,NE,42,5.0,6.0,78,0.00,,,0.00,weatherlink.com 1.10,2013-03-17 09:14:00,
2013-03-17 04:29:00,13.2,7.0,30.16,NNE,17,4.0,8.0,77,0.00,,,0.00,weatherlink.com 1.10,2013-03-17 09:29:00,
2013-03-17 04:44:00,12.8,7.0,30.16,NE,37,3.0,11.0,77,0.00,,,0.00,weatherlink.com 1.10,2013-03-17 09:44:00,
2013-03-17 04:59:00,12.4,7.0,30.16,NE,38,6.0,9.0,78,0.00,,,0.00,weatherlink.com 1.10,2013-03-17 09:59:00,
2013-03-17 05:14:00,12.1,7.0,30.15,NE,46,4.0,8.0,78,0.00,,,0.00,weatherlink.com 1.10,2013-03-17 10:14:00,
2013-03-17 05:29:00,12.0,6.0,30.15,NE,40,3.0,9.0,78,0.00,,,0.00,weatherlink.com 1.10,2013-03-17 10:29:00,
2013-03-17 05:44:00,12.0,6.0,30.15,ENE,63,9.0,10.0,78,0.00,,,0.00,weatherlink.com 1.10,2013-03-17 10:44:00,
2013-03-17 05:59:00,11.9,6.0,30.15,NE,55,5.0,9.0,78,0.00,,,0.00,weatherlink.com 1.10,2013-03-17 10:59:00,
2013-03-17 06:14:00,11.8,6.0,30.16,NE,44,2.0,8.0,78,0.00,,,0.00,weatherlink.com 1.10,2013-03-17 11:14:00,
2013-03-17 06:29:00,11.9,6.0,30.16,NE,55,5.0,7.0,78,0.00,,,0.00,weatherlink.com 1.10,2013-03-17 11:29:00,
2013-03-17 06:44:00,11.9,6.0,30.17,NE,52,3.0,8.0,76,0.00,,,0.00,weatherlink.com 1.10,2013-03-17 11:44:00,
2013-03-17 06:59:00,12.0,6.0,30.18,NE,46,4.0,7.0,76,0.00,,,0.00,weatherlink.com 1.10,2013-03-17 11:59:00,
2013-03-17 07:14:00,11.9,6.0,30.18,NE,51,2.0,8.0,76,0.00,,,0.00,weatherlink.com 1.10,2013-03-17 12:14:00,
2013-03-17 07:29:00,11.8,6.0,30.18,NE,46,0.0,8.0,76,0.00,,,0.00,weatherlink.com 1.10,2013-03-17 12:29:00,
2013-03-17 07:44:00,11.8,6.0,30.18,ESE,107,0.0,8.0,76,0.00,,,0.00,weatherlink.com 1.10,2013-03-17 12:44:00,
2013-03-17 07:59:00,12.4,6.0,30.19,ENE,67,2.0,5.0,76,0.00,,,0.00,weatherlink.com 1.10,2013-03-17 12:59:00,
2013-03-17 08:14:00,12.9,6.0,30.19,ENE,69,4.0,7.0,74,0.00,,,0.00,weatherlink.com 1.10,2013-03-17 13:14:00,
2013-03-17 08:29:00,13.2,6.0,30.18,ESE,105,1.0,7.0,74,0.00,,,0.00,weatherlink.com 1.10,2013-03-17 13:29:00,
2013-03-17 08:45:00,13.9,7.0,30.18,ESE,119,3.0,9.0,73,0.00,,,0.00,weatherlink.com 1.10,2013-03-17 13:45:00,
2013-03-17 09:00:00,14.6,7.0,30.18,ENE,75,7.0,10.0,71,0.00,,,0.00,weatherlink.com 1.10,2013-03-17 14:00:00,
2013-03-17 09:15:00,15.2,7.0,30.18,East,90,7.0,11.0,71,0.00,,,0.00,weatherlink.com 1.10,2013-03-17 14:15:00,
2013-03-17 09:30:00,16.1,8.0,30.18,East,80,5.0,8.0,71,0.00,,,0.00,weatherlink.com 1.10,2013-03-17 14:30:00,
2013-03-17 09:45:00,16.7,9.0,30.17,ESE,111,1.0,10.0,71,0.00,,,0.00,weatherlink.com 1.10,2013-03-17 14:45:00,
2013-03-17 10:00:00,17.8,10.0,30.17,ESE,104,7.0,8.0,70,0.00,,,0.00,weatherlink.com 1.10,2013-03-17 15:00:00,
2013-03-17 10:15:00,18.4,10.0,30.17,ESE,103,5.0,10.0,69,0.00,,,0.00,weatherlink.com 1.10,2013-03-17 15:15:00,
2013-03-17 10:30:00,19.2,11.0,30.16,SE,146,3.0,8.0,69,0.00,,,0.00,weatherlink.com 1.10,2013-03-17 15:30:00,
2013-03-17 10:45:00,20.3,12.0,30.16,SE,143,1.0,9.0,70,0.00,,,0.00,weatherlink.com 1.10,2013-03-17 15:45:00,
2013-03-17 11:00:00,21.6,13.0,30.15,ESE,111,7.0,10.0,69,0.00,,,0.00,weatherlink.com 1.10,2013-03-17 16:00:00,
2013-03-17 11:15:00,22.1,13.0,30.15,ESE,114,2.0,8.0,68,0.00,,,0.00,weatherlink.com 1.10,2013-03-17 16:15:00,
2013-03-17 11:30:00,23.5,14.0,30.14,SE,138,3.0,7.0,67,0.00,,,0.00,weatherlink.com 1.10,2013-03-17 16:30:00,
2013-03-17 11:45:00,23.5,14.0,30.13,ESE,120,8.0,11.0,67,0.00,,,0.00,weatherlink.com 1.10,2013-03-17 16:45:00,
2013-03-17 12:00:00,25.2,16.0,30.13,SE,144,6.0,8.0,67,0.00,,,0.00,weatherlink.com 1.10,2013-03-17 17:00:00,
2013-03-17 12:15:00,24.9,15.0,30.12,SSE,164,4.0,11.0,65,0.00,,,0.00,weatherlink.com 1.10,2013-03-17 17:15:00,
2013-03-17 12:30:00,25.9,16.0,30.11,ESE,106,4.0,10.0,66,0.00,,,0.00,weatherlink.com 1.10,2013-03-17 17:30:00,
2013-03-17 12:45:00,26.9,17.0,30.10,SE,140,2.0,9.0,65,0.00,,,0.00,weatherlink.com 1.10,2013-03-17 17:45:00,
2013-03-17 13:00:00,26.7,16.0,30.08,ESE,109,3.0,13.0,65,0.00,,,0.00,weatherlink.com 1.10,2013-03-17 18:00:00,
2013-03-17 13:15:00,27.3,17.0,30.08,SSE,150,6.0,10.0,65,0.00,,,0.00,weatherlink.com 1.10,2013-03-17 18:15:00,
2013-03-17 13:30:00,27.7,18.0,30.06,SE,133,2.0,6.0,66,0.00,,,0.00,weatherlink.com 1.10,2013-03-17 18:30:00,
2013-03-17 13:45:00,28.4,18.0,30.06,SE,128,5.0,10.0,65,0.00,,,0.00,weatherlink.com 1.10,2013-03-17 18:45:00,
2013-03-17 14:00:00,28.8,18.0,30.05,ESE,114,4.0,12.0,64,0.00,,,0.00,weatherlink.com 1.10,2013-03-17 19:00:00,
2013-03-17 14:15:00,28.7,19.0,30.04,ESE,123,8.0,11.0,66,0.00,,,0.00,weatherlink.com 1.10,2013-03-17 19:15:00,
2013-03-17 14:30:00,28.9,19.0,30.02,SE,126,5.0,13.0,66,0.00,,,0.00,weatherlink.com 1.10,2013-03-17 19:30:00,
2013-03-17 14:45:00,29.3,19.0,30.01,SE,146,6.0,11.0,66,0.00,,,0.00,weatherlink.com 1.10,2013-03-17 19:45:00,
2013-03-17 15:00:00,30.1,20.0,30.00,SE,124,7.0,16.0,67,0.00,,,0.00,weatherlink.com 1.10,2013-03-17 20:00:00,
2013-03-17 15:16:00,30.2,20.0,29.98,ESE,117,9.0,12.0,66,0.00,,,0.00,weatherlink.com 1.10,2013-03-17 20:16:00,
2013-03-17 15:31:00,30.3,20.0,29.98,SE,124,2.0,12.0,66,0.00,,,0.00,weatherlink.com 1.10,2013-03-17 20:31:00,
2013-03-17 15:46:00,30.5,21.0,29.97,South,169,4.0,13.0,67,0.00,,,0.00,weatherlink.com 1.10,2013-03-17 20:46:00,
2013-03-17 16:01:00,30.6,21.0,29.97,ESE,105,5.0,13.0,68,0.00,,,0.00,weatherlink.com 1.10,2013-03-17 21:01:00,
2013-03-17 16:16:00,31.1,22.0,29.97,SE,135,3.0,12.0,68,0.00,,,0.00,weatherlink.com 1.10,2013-03-17 21:16:00,
2013-03-17 16:31:00,31.5,22.0,29.96,SSE,148,4.0,12.0,68,0.00,,,0.00,weatherlink.com 1.10,2013-03-17 21:31:00,
2013-03-17 16:46:00,31.3,22.0,29.97,SE,142,3.0,10.0,68,0.00,,,0.00,weatherlink.com 1.10,2013-03-17 21:46:00,
2013-03-17 17:04:00,31.4,22.0,29.96,SE,129,7.0,10.0,68,0.00,,,0.00,weatherlink.com 1.10,2013-03-17 22:04:00,
2013-03-17 17:31:00,31.1,23.0,29.95,SE,136,2.0,9.0,71,0.00,,,0.00,weatherlink.com 1.10,2013-03-17 22:31:00,
2013-03-17 18:01:00,30.3,23.0,29.93,SE,141,4.0,10.0,73,0.00,,,0.00,weatherlink.com 1.10,2013-03-17 23:01:00,
2013-03-17 18:16:00,30.2,23.0,29.93,SE,130,4.0,9.0,74,0.00,,,0.00,weatherlink.com 1.10,2013-03-17 23:16:00,
2013-03-17 18:31:00,30.1,23.0,29.93,SE,134,3.0,7.0,76,0.00,,,0.00,weatherlink.com 1.10,2013-03-17 23:31:00,
2013-03-17 18:46:00,30.0,23.0,29.92,ESE,120,2.0,8.0,76,0.00,,,0.00,weatherlink.com 1.10,2013-03-17 23:46:00,
2013-03-17 19:01:00,30.1,24.0,29.91,SE,141,6.0,8.0,77,0.00,,,0.00,weatherlink.com 1.10,2013-03-18 00:01:00,
2013-03-17 19:16:00,30.1,23.0,29.91,SE,141,4.0,11.0,76,0.00,,,0.00,weatherlink.com 1.10,2013-03-18 00:16:00,
2013-03-17 19:31:00,29.9,24.0,29.91,SE,137,5.0,10.0,78,0.00,,,0.00,weatherlink.com 1.10,2013-03-18 00:31:00,
2013-03-17 19:46:00,29.7,23.0,29.91,East,96,5.0,14.0,77,0.00,,,0.00,weatherlink.com 1.10,2013-03-18 00:46:00,
2013-03-17 20:01:00,29.4,23.0,29.91,SE,144,4.0,10.0,78,0.00,,,0.00,weatherlink.com 1.10,2013-03-18 01:01:00,
2013-03-17 20:16:00,29.2,23.0,29.90,SE,135,6.0,10.0,79,0.00,,,0.00,weatherlink.com 1.10,2013-03-18 01:16:00,
2013-03-17 20:31:00,29.1,24.0,29.91,SE,128,5.0,12.0,80,0.00,,,0.00,weatherlink.com 1.10,2013-03-18 01:31:00,
2013-03-17 20:46:00,29.0,24.0,29.91,SE,134,4.0,11.0,80,0.00,,,0.00,weatherlink.com 1.10,2013-03-18 01:46:00,
2013-03-17 21:01:00,28.7,24.0,29.91,ESE,121,7.0,10.0,81,0.00,,,0.00,weatherlink.com 1.10,2013-03-18 02:01:00,
2013-03-17 21:31:00,28.4,23.0,29.91,SSE,147,4.0,10.0,81,0.00,,,0.00,weatherlink.com 1.10,2013-03-18 02:31:00,
2013-03-17 21:46:00,28.3,23.0,29.90,SE,132,4.0,10.0,80,0.00,,,0.00,weatherlink.com 1.10,2013-03-18 02:46:00,
2013-03-17 22:01:00,28.3,23.0,29.90,SE,128,4.0,11.0,81,0.00,,,0.00,weatherlink.com 1.10,2013-03-18 03:01:00,
2013-03-17 22:16:00,28.4,23.0,29.89,SE,146,4.0,12.0,81,0.00,,,0.00,weatherlink.com 1.10,2013-03-18 03:16:00,
2013-03-17 22:31:00,28.4,24.0,29.89,SE,139,4.0,9.0,82,0.00,,,0.00,weatherlink.com 1.10,2013-03-18 03:31:00,
2013-03-17 22:46:00,28.5,24.0,29.89,SE,125,4.0,10.0,82,0.00,,,0.00,weatherlink.com 1.10,2013-03-18 03:46:00,
2013-03-17 23:01:00,28.6,24.0,29.88,SE,133,7.0,11.0,82,0.00,,,0.00,weatherlink.com 1.10,2013-03-18 04:01:00,
2013-03-17 23:31:00,28.8,24.0,29.87,SE,143,6.0,14.0,82,0.00,,,0.00,weatherlink.com 1.10,2013-03-18 04:31:00,
2013-03-17 23:46:00,28.9,24.0,29.86,SE,126,5.0,8.0,82,0.00,,,0.00,weatherlink.com 1.10,2013-03-18 04:46:00,